Location: Gaast
(52.9002°N, 5.8891°E)
Time: 10:17:58
(UTC+00:00)

ARIANE 6 FM1 Upper Stage - Pass Details

Date: 18 November 2025
Orbit: 522 x 611 km, 62.0° (Epoch: 11 December)

Event Time Altitude Azimuth Distance (km) Brightness Sun altitude
Rises 17:53:37 0° 293° (WNW) 2,661 7.2 -20.1°
Reaches altitude 10° 17:56:12 10° 309° (NW) 1,768 5.8 -20.5°
Maximum altitude 17:59:19 22° 1° (N) 1,192 4.2 -21.0°
Enters shadow 17:59:30 22° 5° (N) 1,195 4.2 -21.0°
